EW5657 Weather Reports


Display with metric or nautical units.
time (UTC)temp
F
wind
direction
speed
MPH
gust
MPH
rain 1hr
in
rain 24hr
in
rain mn
in
humidity
%
barometer
mb
20260509104902 57 171 0.0 0.0 0.00 0.02 0.02 91 1029.3
20260509104401 57 171 0.0 0.0 0.00 0.02 0.02 91 1029.3
20260509103901 57 171 0.0 0.0 0.00 0.02 0.02 91 1029.2
20260509103408 57 171 0.0 2.0 0.00 0.02 0.02 91 1029.2
20260509103402 57 171 0.0 0.0 0.00 0.02 0.02 91 1029.3
20260509102358 57 171 0.0 2.0 0.00 0.02 0.02 91 1029.2
20260509101900 57 171 0.0 2.0 0.00 0.02 0.02 91 1029.2
20260509101359 57 171 0.0 1.0 0.00 0.02 0.02 91 1029.2
20260509100904 57 171 0.0 6.0 0.00 0.02 0.02 91 1029.2
20260509100859 57 171 0.0 6.0 0.00 0.02 0.02 91 1029.2
20260509095858 56 185 0.0 0.0 0.00 0.02 0.02 90 1029.2
20260509095404 57 185 0.0 1.0 0.00 0.02 0.02 90 1029.2
20260509095400 57 185 0.0 1.0 0.00 0.02 0.02 90 1029.2
20260509094405 57 185 0.0 0.0 0.00 0.02 0.02 90 1029.2
20260509094401 57 185 0.0 1.0 0.00 0.02 0.02 90 1029.2
20260509093356 57 185 0.0 2.0 0.00 0.02 0.02 90 1029.2
20260509092857 57 185 0.0 2.0 0.00 0.02 0.02 90 1029.2
20260509092356 57 185 0.0 2.0 0.00 0.02 0.02 90 1029.1
20260509091903 57 185 0.0 2.0 0.00 0.02 0.02 89 1028.9
20260509091858 57 185 0.0 1.0 0.00 0.02 0.02 89 1029.0
20260509090905 58 185 0.0 3.0 0.00 0.02 0.02 89 1028.9
20260509090857 57 185 0.0 2.0 0.00 0.02 0.02 89 1029.0
20260509090359 57 185 0.0 2.0 0.00 0.02 0.02 89 1028.9
20260509085358 58 185 0.0 3.0 0.00 0.02 0.02 89 1028.9
20260509085020 58 185 0.0 1.0 0.00 0.02 0.02 89 1028.7
20260509084900 58 185 0.0 2.0 0.00 0.02 0.02 89 1028.9
20260509084856 58 185 0.0 2.0 0.00 0.02 0.02 89 1028.7
20260509083356 58 185 0.0 4.0 0.00 0.02 0.02 88 1028.7
20260509082855 58 185 0.0 4.0 0.00 0.02 0.02 88 1028.6
20260509082356 58 185 0.0 2.0 0.00 0.02 0.02 88 1028.6
20260509081855 58 185 0.0 2.0 0.00 0.02 0.02 88 1028.6
20260509081359 58 185 0.0 2.0 0.00 0.02 0.02 87 1028.5
20260509080854 58 185 0.0 2.0 0.00 0.02 0.02 87 1028.5
20260509080354 58 185 0.0 0.0 0.00 0.02 0.02 87 1028.4
20260509075854 59 185 0.0 1.0 0.00 0.02 0.02 87 1028.3
20260509075352 59 185 0.0 2.0 0.00 0.02 0.02 87 1028.3
20260509074852 59 185 0.0 2.0 0.00 0.02 0.02 87 1028.2
20260509074353 59 185 0.0 4.0 0.00 0.02 0.02 87 1028.2
20260509073850 59 185 1.0 4.0 0.00 0.02 0.02 87 1028.2
20260509073350 59 189 1.0 4.0 0.00 0.02 0.02 86 1028.1
20260509072848 59 189 0.0 3.0 0.00 0.02 0.02 86 1028.0
20260509072354 59 189 1.0 4.0 0.00 0.02 0.02 86 1027.9
20260509072349 59 189 0.0 4.0 0.00 0.02 0.02 86 1028.0
20260509071349 59 189 1.0 5.0 0.00 0.02 0.02 86 1027.9
20260509070849 59 190 1.0 5.0 0.00 0.02 0.02 86 1027.9
20260509070348 59 193 1.0 4.0 0.00 0.02 0.02 86 1027.9
20260509065849 59 194 1.0 5.0 0.00 0.02 0.02 86 1027.9
20260509065350 60 195 1.0 5.0 0.00 0.02 0.02 86 1027.9
20260509064848 60 185 1.0 5.0 0.00 0.02 0.02 86 1027.9
20260509064348 60 164 1.0 5.0 0.00 0.02 0.02 86 1027.8
20260509063854 60 216 1.0 4.0 0.00 0.02 0.02 87 1027.8
20260509063848 60 212 1.0 5.0 0.00 0.02 0.02 87 1027.8
20260509063514 60 221 1.0 4.0 0.00 0.02 0.02 87 1027.8
20260509063012 60 221 1.0 4.0 0.00 0.02 0.02 87 1027.7
20260509061849 60 249 1.0 4.0 0.00 0.02 0.02 87 1027.8
20260509061350 60 249 1.0 4.0 0.00 0.02 0.02 87 1027.8
20260509060850 60 251 1.0 3.0 0.00 0.02 0.02 87 1027.7
20260509060348 60 251 1.0 3.0 0.00 0.02 0.02 87 1027.6
20260509055850 60 251 1.0 4.0 0.00 0.02 0.02 87 1027.7
20260509055349 60 251 1.0 4.0 0.00 0.02 0.02 87 1027.6
20260509054848 61 254 1.0 4.0 0.00 0.02 0.02 88 1027.7
20260509054349 61 272 1.0 3.0 0.00 0.02 0.02 89 1027.6
20260509053855 61 273 1.0 4.0 0.00 0.02 0.02 90 1027.6
20260509053849 61 273 1.0 3.0 0.00 0.02 0.02 89 1027.6
20260509053515 61 273 1.0 4.0 0.00 0.02 0.02 91 1027.6
20260509052353 60 274 1.0 4.0 0.00 0.02 0.02 92 1027.6
20260509052347 60 274 1.0 4.0 0.00 0.02 0.02 92 1027.6
20260509051347 60 274 1.0 3.0 0.00 0.02 0.02 93 1027.6
20260509050845 60 274 1.0 3.0 0.00 0.02 0.02 93 1027.5
20260509050346 60 274 1.0 3.0 0.00 0.02 0.02 93 1027.6
20260509045848 60 274 1.0 4.0 0.00 0.02 0.02 93 1027.7
20260509045346 59 274 1.0 7.0 0.00 0.02 0.02 94 1027.7
20260509044847 59 274 1.0 7.0 0.00 0.02 0.02 94 1027.8
20260509044346 58 229 1.0 4.0 0.00 0.02 0.02 94 1027.8
20260509043846 58 229 1.0 4.0 0.00 0.02 0.02 94 1027.8
20260509043346 58 226 1.0 3.0 0.00 0.02 0.02 94 1027.7
20260509042850 58 224 1.0 5.0 0.00 0.02 0.02 94 1027.8
20260509042845 58 224 1.0 5.0 0.00 0.02 0.02 94 1027.8
20260509042513 59 229 1.0 5.0 0.00 0.02 0.02 94 1027.8
20260509041342 59 229 1.0 5.0 0.00 0.02 0.02 94 1027.8
20260509040843 59 226 0.0 3.0 0.00 0.02 0.02 94 1027.8
20260509040343 59 226 1.0 3.0 0.00 0.02 0.02 95 1027.8
20260509035842 58 226 1.0 3.0 0.00 0.02 0.02 95 1027.8
20260509035342 58 226 1.0 5.0 0.00 0.02 0.02 95 1027.9
20260509034842 58 226 1.0 5.0 0.00 0.02 0.02 95 1027.9
20260509034341 58 224 2.0 4.0 0.00 0.02 0.02 95 1027.8
20260509033842 58 223 1.0 4.0 0.00 0.02 0.02 95 1027.8
20260509033340 58 218 1.0 5.0 0.00 0.02 0.02 95 1027.8
20260509032840 58 218 1.0 5.0 0.00 0.02 0.02 95 1027.9
20260509032342 58 218 1.0 5.0 0.00 0.02 0.02 95 1027.9
20260509031842 58 217 1.0 4.0 0.00 0.02 0.02 95 1028.0
20260509031341 58 219 1.0 5.0 0.00 0.02 0.02 95 1028.0
20260509030709 58 220 1.0 3.0 0.00 0.02 0.02 95 1028.1
20260509030209 58 237 1.0 4.0 0.00 0.02 0.02 95 1028.2
20260509025709 58 239 1.0 4.0 0.00 0.02 0.02 95 1028.2
20260509025217 58 235 1.0 5.0 0.00 0.02 0.02 95 1028.3
20260509025211 58 237 1.0 5.0 0.00 0.02 0.02 95 1028.3
20260509024842 58 241 1.0 4.0 0.00 0.02 0.02 95 1028.4
20260509024707 58 239 1.0 5.0 0.00 0.02 0.02 95 1028.3
20260509023205 58 226 1.0 4.0 0.00 0.02 0.02 95 1028.5
20260509022707 58 215 1.0 5.0 0.00 0.02 0.02 95 1028.6
20260509022205 58 216 1.0 5.0 0.00 0.02 0.02 95 1028.5
20260509021706 58 206 1.0 5.0 0.00 0.02 0.02 95 1028.8
20260509021207 58 201 1.0 7.0 0.00 0.02 0.02 95 1028.8
20260509020706 58 204 1.0 7.0 0.00 0.02 0.02 95 1028.9
20260509020206 57 229 0.0 4.0 0.00 0.02 0.02 95 1029.0
20260509015705 57 231 1.0 6.0 0.00 0.02 0.02 95 1029.0
20260509015205 57 231 1.0 6.0 0.00 0.02 0.02 95 1028.9
20260509014703 57 224 1.0 6.0 0.00 0.02 0.02 95 1029.0
20260509014203 57 211 1.0 4.0 0.00 0.02 0.02 95 1029.1
20260509013704 57 221 1.0 5.0 0.00 0.02 0.02 95 1029.1
20260509013203 57 220 1.0 5.0 0.00 0.02 0.02 95 1029.2
20260509012705 56 231 1.0 5.0 0.00 0.02 0.02 95 1029.2
20260509012203 56 235 1.0 5.0 0.00 0.02 0.02 95 1029.2
20260509011706 56 233 1.0 5.0 0.00 0.02 0.02 95 1029.2
20260509011205 57 221 1.0 5.0 0.00 0.02 0.02 95 1029.2
20260509010705 57 206 1.0 4.0 0.00 0.02 0.02 95 1029.2
20260509010210 57 203 1.0 6.0 0.00 0.02 0.02 95 1029.1
20260509010204 57 207 1.0 6.0 0.00 0.02 0.02 95 1029.2
20260509005210 56 212 1.0 5.0 0.00 0.02 0.02 95 1029.0
20260509005205 56 211 1.0 4.0 0.00 0.02 0.02 95 1029.1
20260509004201 56 210 1.0 5.0 0.00 0.02 0.02 95 1029.0
20260509003702 56 225 1.0 5.0 0.00 0.02 0.02 95 1029.1
20260509003201 56 235 1.0 6.0 0.00 0.02 0.02 94 1029.2
20260509002704 56 237 1.0 6.0 0.00 0.02 0.02 95 1029.2
20260509002201 56 231 1.0 6.0 0.00 0.02 0.02 95 1029.2
20260509001701 56 233 1.0 7.0 0.00 0.02 0.02 95 1029.1
20260509001202 56 240 1.0 7.0 0.00 0.02 0.02 95 1029.0
20260509000701 56 262 1.0 7.0 0.00 0.02 0.02 95 1029.1
20260509000204 56 222 1.0 6.0 0.00 0.02 0.02 95 1029.1
20260508235707 56 255 1.0 6.0 0.00 0.02 0.02 95 1029.1
20260508235701 56 239 1.0 4.0 0.00 0.02 0.02 95 1029.1
20260508235200 56 259 1.0 6.0 0.00 0.02 0.02 95 1029.0
20260508234159 56 214 1.0 4.0 0.00 0.02 0.02 95 1029.0
20260508233659 56 222 1.0 4.0 0.00 0.02 0.02 95 1029.0
20260508232659 56 242 1.0 5.0 0.00 0.02 0.02 94 1029.0
20260508232159 56 242 1.0 5.0 0.00 0.02 0.02 94 1029.0
20260508231658 56 231 1.0 4.0 0.00 0.02 0.02 94 1028.9
20260508231205 55 237 1.0 5.0 0.00 0.02 0.02 94 1028.9
20260508231159 56 229 1.0 4.0 0.00 0.02 0.02 94 1028.9
20260508230159 55 217 1.0 5.0 0.00 0.02 0.02 94 1028.9
20260508225659 55 237 1.0 4.0 0.00 0.02 0.02 94 1028.8
20260508225157 55 241 0.0 3.0 0.00 0.02 0.02 94 1028.8
20260508224657 55 241 1.0 4.0 0.00 0.02 0.02 94 1028.7
20260508224158 55 241 1.0 4.0 0.00 0.02 0.02 94 1028.6
20260508223657 55 248 1.0 4.0 0.00 0.02 0.02 94 1028.6
20260508223158 55 247 1.0 4.0 0.00 0.02 0.02 94 1028.5
20260508222656 55 249 1.0 9.0 0.00 0.02 0.02 94 1028.5
20260508222157 55 249 1.0 9.0 0.00 0.02 0.02 94 1028.4
20260508221657 56 258 1.0 5.0 0.00 0.02 0.02 94 1028.4
20260508221158 55 241 1.0 5.0 0.00 0.02 0.02 94 1028.3
20260508220703 55 224 1.0 9.0 0.00 0.02 0.02 94 1028.2
20260508220658 55 220 1.0 3.0 0.00 0.02 0.02 94 1028.3
20260508220157 55 221 1.0 9.0 0.00 0.02 0.02 94 1028.3
20260508215157 55 239 1.0 6.0 0.00 0.02 0.02 94 1028.1
20260508214653 55 214 1.0 6.0 0.00 0.02 0.02 94 1028.1
20260508214151 55 249 1.0 6.0 0.00 0.02 0.02 94 1028.0
20260508213652 55 230 1.0 9.0 0.00 0.02 0.02 94 1028.0
20260508213152 55 240 1.0 9.0 0.00 0.02 0.02 94 1028.0
20260508212648 55 234 1.0 4.0 0.01 0.02 0.02 94 1028.0
20260508212151 55 240 1.0 4.0 0.01 0.02 0.02 94 1028.0
20260508211650 55 245 1.0 4.0 0.01 0.02 0.02 94 1028.0
20260508211146 55 252 1.0 4.0 0.01 0.02 0.02 94 1028.0
20260508210647 55 252 1.0 4.0 0.01 0.02 0.02 94 1027.9
20260508210147 55 227 1.0 3.0 0.01 0.02 0.02 94 1027.9
20260508205646 55 227 1.0 5.0 0.01 0.02 0.02 94 1027.9
20260508205145 55 233 0.0 5.0 0.01 0.02 0.02 94 1027.8
20260508204646 55 231 0.0 5.0 0.01 0.02 0.02 94 1027.8
20260508204143 55 231 0.0 5.0 0.01 0.02 0.02 94 1027.7
20260508203645 55 233 1.0 4.0 0.01 0.02 0.02 93 1027.7
20260508203144 55 229 1.0 4.0 0.01 0.02 0.02 93 1027.6
20260508202648 55 231 1.0 6.0 0.01 0.02 0.02 93 1027.6
20260508202643 55 229 0.0 3.0 0.00 0.02 0.02 93 1027.6
20260508201644 55 232 1.0 6.0 0.01 0.02 0.02 93 1027.6
20260508201144 55 232 0.0 4.0 0.01 0.02 0.02 93 1027.5
20260508200644 55 238 0.0 1.0 0.01 0.02 0.02 93 1027.5
20260508200133 55 238 0.0 2.0 0.01 0.02 0.02 93 1027.4
20260508195632 55 238 0.0 2.0 0.01 0.02 0.02 93 1027.4
20260508195134 55 239 0.0 2.0 0.01 0.02 0.02 93 1027.3
20260508194634 55 239 0.0 4.0 0.01 0.02 0.02 93 1027.3
20260508194132 55 239 0.0 4.0 0.01 0.02 0.02 93 1027.2
20260508193632 55 237 0.0 3.0 0.01 0.02 0.02 93 1027.1
20260508193134 55 237 1.0 7.0 0.01 0.02 0.02 93 1027.1
20260508192638 55 213 0.0 5.0 0.00 0.01 0.01 93 1027.1
20260508192634 55 294 0.0 7.0 0.01 0.02 0.02 93 1027.1
20260508191633 55 208 1.0 5.0 0.00 0.01 0.01 93 1027.0
20260508191131 55 231 1.0 4.0 0.00 0.01 0.01 93 1027.1
20260508190631 55 208 1.0 4.0 0.00 0.01 0.01 93 1027.0
20260508190132 55 235 0.0 3.0 0.00 0.01 0.01 93 1027.1
20260508185632 55 233 0.0 3.0 0.00 0.01 0.01 93 1027.0
20260508185131 55 233 1.0 5.0 0.00 0.01 0.01 93 1027.0
20260508184632 55 231 1.0 7.0 0.00 0.01 0.01 93 1027.0
20260508184137 55 212 0.0 4.0 0.00 0.01 0.01 93 1026.8
20260508184131 55 264 1.0 7.0 0.00 0.01 0.01 93 1026.9
20260508183132 55 212 1.0 4.0 0.00 0.01 0.01 93 1026.8
20260508182632 55 242 1.0 6.0 0.00 0.01 0.01 93 1026.8
20260508182128 55 246 1.0 6.0 0.00 0.01 0.01 92 1026.7
20260508181639 55 243 0.0 4.0 0.00 0.01 0.01 92 1026.7
20260508181629 55 234 0.0 5.0 0.00 0.01 0.01 92 1026.7
20260508181129 55 243 0.0 4.0 0.00 0.01 0.01 92 1026.6
20260508180129 55 241 1.0 4.0 0.00 0.01 0.01 92 1026.5
20260508175630 55 243 1.0 4.0 0.01 0.01 0.01 92 1026.6
20260508175130 55 233 1.0 5.0 0.01 0.01 0.01 92 1026.6
20260508174630 55 233 1.0 5.0 0.01 0.01 0.01 92 1026.6
20260508174128 55 225 0.0 4.0 0.01 0.01 0.01 92 1026.7
20260508173630 55 205 0.0 5.0 0.01 0.01 0.01 92 1026.6
20260508173132 55 226 1.0 6.0 0.01 0.01 0.01 92 1026.6
20260508173126 55 206 0.0 5.0 0.01 0.01 0.01 92 1026.7
20260508172625 55 229 1.0 4.0 0.01 0.01 0.01 92 1026.6
20260508171626 55 235 0.0 6.0 0.01 0.01 0.01 91 1026.7
20260508171122 55 249 1.0 6.0 0.01 0.01 0.01 91 1026.7
20260508170622 55 250 1.0 5.0 0.01 0.01 0.01 91 1026.7
20260508170129 56 225 0.0 2.0 0.00 0.00 0.00 91 1026.6
20260508170123 55 264 1.0 6.0 0.01 0.01 0.01 91 1026.7
20260508165623 55 269 0.0 6.0 0.00 0.00 0.00 91 1026.7
20260508165251 56 224 0.0 4.0 0.00 0.00 0.00 91 1026.6
20260508164122 56 228 1.0 4.0 0.00 0.00 0.00 91 1026.6
20260508163624 56 255 0.0 3.0 0.00 0.00 0.00 91 1026.5
20260508163124 56 257 1.0 10.0 0.00 0.00 0.00 90 1026.7
20260508162623 56 258 1.0 10.0 0.00 0.00 0.00 90 1026.6
20260508162124 56 224 1.0 4.0 0.00 0.00 0.00 90 1026.5
20260508161630 56 215 1.0 3.0 0.00 0.00 0.00 90 1026.5
20260508161623 56 219 0.0 4.0 0.00 0.00 0.00 90 1026.6
20260508161245 56 212 1.0 7.0 0.00 0.00 0.00 90 1026.6
20260508160129 56 204 1.0 8.0 0.00 0.00 0.00 90 1026.5
20260508160122 56 197 1.0 7.0 0.00 0.00 0.00 90 1026.6
20260508155751 56 175 1.0 8.0 0.00 0.00 0.00 90 1026.5
20260508155249 56 231 1.0 8.0 0.00 0.00 0.00 89 1026.5
20260508154131 56 224 1.0 4.0 0.00 0.00 0.00 89 1026.5
20260508154124 56 205 1.0 8.0 0.00 0.00 0.00 90 1026.5
20260508153122 56 226 1.0 4.0 0.00 0.00 0.00 89 1026.4
20260508152622 55 224 0.0 3.0 0.00 0.00 0.00 89 1026.4
20260508152122 56 242 0.0 3.0 0.00 0.00 0.00 89 1026.4
20260508151622 56 241 0.0 7.0 0.00 0.00 0.00 89 1026.4
20260508151123 56 240 1.0 7.0 0.00 0.00 0.00 89 1026.4
20260508150623 56 258 1.0 3.0 0.00 0.00 0.00 89 1026.4
20260508150124 56 257 0.0 3.0 0.00 0.00 0.00 88 1026.5
20260508145623 56 261 0.0 2.0 0.00 0.00 0.00 88 1026.5
20260508145123 56 264 0.0 2.0 0.00 0.00 0.00 88 1026.5
20260508144621 56 264 1.0 7.0 0.00 0.00 0.00 89 1026.5
20260508144121 56 265 0.0 7.0 0.00 0.00 0.00 88 1026.6
20260508143623 56 241 0.0 2.0 0.00 0.00 0.00 88 1026.6
20260508143121 56 241 0.0 3.0 0.00 0.00 0.00 88 1026.5
20260508142618 56 242 0.0 3.0 0.00 0.00 0.00 88 1026.5
20260508142118 56 241 0.0 4.0 0.00 0.00 0.00 88 1026.6
20260508141630 56 269 1.0 8.0 0.00 0.00 0.00 88 1026.5
20260508141622 56 249 1.0 4.0 0.00 0.00 0.00 87 1026.5
20260508140614 56 264 1.0 8.0 0.00 0.00 0.00 87 1026.5
20260508140114 56 241 1.0 6.0 0.00 0.00 0.00 87 1026.5
20260508135613 56 246 1.0 6.0 0.00 0.00 0.00 87 1026.5
20260508135111 56 239 1.0 6.0 0.00 0.00 0.00 86 1026.4
20260508134610 56 235 1.0 6.0 0.00 0.00 0.00 86 1026.5
20260508134111 56 210 1.0 5.0 0.00 0.00 0.00 86 1026.6
20260508133610 56 225 1.0 7.0 0.00 0.00 0.00 86 1026.4
20260508133109 56 235 1.0 7.0 0.00 0.00 0.00 86 1026.5
20260508132609 57 257 1.0 6.0 0.00 0.00 0.00 85 1026.5
20260508132109 57 204 1.0 5.0 0.00 0.00 0.00 86 1026.5
20260508131609 57 209 1.0 8.0 0.00 0.00 0.00 85 1026.5
20260508131111 57 243 1.0 8.0 0.00 0.00 0.00 85 1026.5
20260508130611 57 254 1.0 3.0 0.00 0.00 0.00 85 1026.5
20260508130109 57 258 1.0 7.0 0.00 0.00 0.00 85 1026.5
20260508125609 57 268 1.0 7.0 0.00 0.00 0.00 85 1026.6
20260508125111 57 201 1.0 6.0 0.00 0.00 0.00 85 1026.6
20260508124609 57 197 1.0 7.0 0.00 0.00 0.00 85 1026.6
20260508124111 57 222 1.0 7.0 0.00 0.00 0.00 85 1026.7
20260508123618 57 214 1.0 3.0 0.00 0.00 0.00 84 1026.7
20260508123610 57 229 1.0 8.0 0.00 0.00 0.00 85 1026.7
20260508123111 57 233 1.0 8.0 0.00 0.00 0.00 85 1026.7
20260508122115 57 215 1.0 5.0 0.00 0.00 0.00 84 1026.7
20260508122109 57 215 1.0 5.0 0.00 0.00 0.00 84 1026.7
20260508121111 57 237 1.0 3.0 0.00 0.00 0.00 83 1026.8
20260508120609 57 237 1.0 5.0 0.00 0.00 0.00 83 1026.7
20260508120111 58 235 1.0 5.0 0.00 0.00 0.00 83 1026.7
20260508115615 58 243 1.0 5.0 0.00 0.00 0.00 83 1026.6
20260508115609 58 243 1.0 5.0 0.00 0.00 0.00 83 1026.7
20260508114616 58 230 2.0 6.0 0.00 0.00 0.00 82 1026.6
20260508114611 58 226 1.0 5.0 0.00 0.00 0.00 83 1026.6
20260508113610 58 251 2.0 6.0 0.00 0.00 0.00 82 1026.6
20260508113109 58 243 2.0 6.0 0.00 0.00 0.00 81 1026.6
20260508112609 58 262 2.0 6.0 0.00 0.00 0.00 81 1026.5
20260508112116 58 248 3.0 7.0 0.00 0.00 0.00 80 1026.5
20260508112110 58 223 2.0 7.0 0.00 0.00 0.00 80 1026.5
20260508111739 58 222 2.0 6.0 0.00 0.00 0.00 79 1026.5
20260508110609 58 238 2.0 8.0 0.00 0.00 0.00 79 1026.4
20260508110604 58 226 3.0 8.0 0.00 0.00 0.00 79 1026.4
20260508105605 58 252 3.0 9.0 0.00 0.00 0.00 80 1026.3